KK7N Weather Reports


time (UTC)temp
F
wind
direction
speed
knots
gust
knots
rain 1hr
in
rain 24hr
in
rain mn
in
humidity
%
barometer
mb
20260507161543 54 281 1.7 5.2 0.00 0.00 0.00 75 1021.1
20260507160048 53 281 0.0 4.3 0.00 0.00 0.00 75 1021.1
20260507154550 53 277 1.7 6.1 0.00 0.00 0.00 75 1021.2
20260507153042 53 0 0.9 3.5 0.00 0.00 0.00 76 1021.2
20260507151548 52 285 0.9 5.2 0.00 0.00 0.00 76 1021.3
20260507150047 52 292 0.0 2.6 0.00 0.00 0.00 77 1021.3
20260507144613 51 0 0.0 7.0 0.00 0.00 0.00 77 1021.2
20260507143054 51 281 1.7 6.1 0.00 0.00 0.00 77 1021.2
20260507141548 51 293 0.9 3.5 0.00 0.00 0.00 78 1021.1
20260507140050 51 0 0.0 6.1 0.00 0.00 0.00 78 1021.0
20260507134544 51 293 2.6 6.1 0.00 0.00 0.00 78 1020.9
20260507133044 51 277 0.9 3.5 0.00 0.00 0.00 77 1020.7
20260507131544 51 0 0.0 5.2 0.00 0.00 0.00 77 1020.7
20260507130043 51 275 0.9 3.5 0.00 0.00 0.00 77 1020.8
20260507124549 52 298 0.9 7.8 0.00 0.00 0.00 76 1020.7
20260507123047 52 302 1.7 7.8 0.00 0.00 0.00 76 1020.7
20260507121542 52 336 3.5 7.8 0.00 0.00 0.00 75 1020.8
20260507120042 52 273 1.7 6.1 0.00 0.00 0.00 76 1020.8
20260507114539 53 294 3.5 7.0 0.00 0.00 0.00 75 1020.8
20260507113045 53 301 3.5 7.8 0.00 0.00 0.00 75 1020.8
20260507111548 53 323 4.3 7.0 0.00 0.00 0.00 75 1020.8
20260507110054 53 317 2.6 8.7 0.00 0.00 0.00 76 1020.8
20260507104543 53 344 0.9 5.2 0.00 0.00 0.00 76 1020.9
20260507103042 53 327 2.6 7.8 0.00 0.00 0.00 76 1020.9
20260507101550 54 300 2.6 8.7 0.00 0.00 0.00 77 1021.0
20260507100045 54 284 2.6 7.8 0.00 0.00 0.00 77 1021.1
20260507094547 54 297 4.3 9.6 0.00 0.00 0.00 77 1021.2
20260507093046 54 290 4.3 7.8 0.00 0.00 0.00 78 1021.3
20260507091542 54 288 2.6 5.2 0.00 0.00 0.00 77 1021.4
20260507090047 54 323 2.6 7.0 0.00 0.00 0.00 77 1021.3
20260507084547 55 284 0.9 6.1 0.00 0.00 0.00 78 1021.4
20260507083043 55 316 1.7 4.3 0.00 0.00 0.00 78 1021.4
20260507081542 55 287 1.7 7.0 0.00 0.00 0.00 78 1021.5
20260507080048 55 350 1.7 7.0 0.00 0.00 0.00 78 1021.5
20260507074545 55 299 4.3 8.7 0.00 0.00 0.00 78 1021.5
20260507073044 55 298 1.7 7.0 0.00 0.00 0.00 78 1021.5
20260507071543 55 294 1.7 4.3 0.00 0.00 0.00 78 1021.4
20260507070044 55 292 1.7 6.1 0.00 0.00 0.00 77 1021.4
20260507064541 55 292 1.7 7.0 0.00 0.00 0.00 77 1021.5
20260507063048 55 313 3.5 8.7 0.00 0.00 0.00 77 1021.5
20260507061544 56 327 3.5 9.6 0.00 0.00 0.00 77 1021.5
20260507060052 56 298 4.3 9.6 0.00 0.00 0.00 77 1021.5
20260507054548 56 288 4.3 9.6 0.00 0.00 0.00 76 1021.5
20260507053042 56 306 4.3 9.6 0.00 0.00 0.00 75 1021.4
20260507051549 57 316 5.2 8.7 0.00 0.00 0.00 75 1021.4
20260507050046 57 274 3.5 7.8 0.00 0.00 0.00 75 1021.5
20260507044558 58 334 3.5 7.8 0.00 0.00 0.00 75 1021.5
20260507043044 58 308 1.7 8.7 0.00 0.00 0.00 75 1021.3
20260507041543 59 311 5.2 10.4 0.00 0.00 0.00 74 1021.2
20260507040039 59 313 5.2 12.2 0.00 0.00 0.00 74 1020.9
20260507034545 60 285 4.3 10.4 0.00 0.00 0.00 74 1020.7
20260507033044 60 333 5.2 9.6 0.00 0.00 0.00 74 1020.5
20260507031543 61 289 5.2 10.4 0.00 0.00 0.00 73 1020.3
20260507030045 62 289 5.2 9.6 0.00 0.00 0.00 72 1020.2
20260507024545 63 286 3.5 11.3 0.00 0.00 0.00 71 1019.9
20260507023044 64 290 4.3 9.6 0.00 0.00 0.00 69 1020.0
20260507021542 65 333 3.5 9.6 0.00 0.00 0.00 68 1020.0
20260507020051 65 323 4.3 10.4 0.00 0.00 0.00 68 1020.1
20260507014553 66 308 6.1 10.4 0.00 0.00 0.00 67 1020.2
20260507013056 66 283 5.2 10.4 0.00 0.00 0.00 67 1020.0
20260507011544 66 0 0.0 1.7 0.00 0.00 0.00 71 1020.0
20260507010045 67 336 0.9 7.0 0.00 0.00 0.00 72 1019.9
20260507004543 67 0 0.0 1.7 0.00 0.00 0.00 71 1020.0
20260507003045 67 0 0.0 3.5 0.00 0.00 0.00 69 1020.0
20260507001544 67 0 0.0 1.7 0.00 0.00 0.00 68 1019.9
20260507000048 67 0 0.0 4.3 0.00 0.00 0.00 69 1019.9
20260506234542 68 0 0.0 2.6 0.00 0.00 0.00 65 1019.9
20260506233045 68 0 0.0 0.9 0.00 0.00 0.00 66 1019.9
20260506231545 68 0 0.0 0.9 0.00 0.00 0.00 65 1019.9
20260506230044 68 0 0.0 1.7 0.00 0.00 0.00 66 1020.1
20260506224601 68 318 0.0 1.7 0.00 0.00 0.00 67 1020.3
20260506223050 68 0 0.9 5.2 0.00 0.00 0.00 63 1020.4
20260506221548 68 0 0.0 3.5 0.00 0.00 0.00 67 1020.6
20260506220048 68 0 0.9 4.3 0.00 0.00 0.00 67 1020.6
20260506214601 67 319 1.7 5.2 0.00 0.00 0.00 68 1020.5
20260506213048 65 0 0.9 4.3 0.00 0.00 0.00 75 1020.7
20260506211541 64 0 0.0 2.6 0.00 0.00 0.00 76 1020.9
20260506210052 63 0 0.0 0.9 0.00 0.00 0.00 75 1020.9
20260506204549 63 0 0.0 1.7 0.00 0.00 0.00 77 1020.9
20260506203047 62 0 0.0 0.9 0.00 0.00 0.00 78 1020.8
20260506201545 62 0 0.0 1.7 0.00 0.00 0.00 79 1021.0
20260506200049 62 0 0.0 2.6 0.00 0.00 0.00 78 1021.0
20260506194600 62 0 0.9 3.5 0.00 0.00 0.00 77 1021.2
20260506193043 62 298 0.0 2.6 0.00 0.00 0.00 77 1021.2
20260506191543 62 0 0.9 2.6 0.00 0.00 0.00 75 1021.1
20260506190044 62 298 0.9 3.5 0.00 0.00 0.00 77 1021.1
20260506184540 61 0 1.7 6.1 0.00 0.00 0.00 77 1021.0
20260506183043 61 299 1.7 6.1 0.00 0.00 0.00 77 1021.1
20260506181548 61 0 0.0 2.6 0.00 0.00 0.00 78 1021.1
20260506180049 61 301 0.0 4.3 0.00 0.00 0.00 78 1021.1
20260506174542 61 0 0.0 2.6 0.00 0.00 0.00 77 1021.0
20260506173050 60 333 0.0 2.6 0.00 0.00 0.00 78 1020.9
20260506171554 60 334 0.0 2.6 0.00 0.00 0.00 80 1020.9
20260506170049 59 334 0.9 5.2 0.00 0.00 0.00 81 1020.9
20260506164544 59 0 0.0 3.5 0.00 0.00 0.00 82 1020.9
20260506163049 58 0 0.0 2.6 0.00 0.00 0.00 83 1020.7